Theta_e
299 299 299 299 298 298 298 298 297 297 297 296 296 296 296 296 295 295 295 294 294 294 294 294 293 293 293 292 292 292 292 292 292 291 291 291 291 291 290 290 289 289
298 298 298 298 298 297 297 297 297 297 297 296 296 296 296 295 295 295 294 294 294 294 294 294 293 293 293 292 292 292 292 292 292 291 291 291 291 291 290 289 289 288
298 298 298 298 298 297 297 296 296 296 296 296 296 296 295 295 295 294 294 294 294 294 294 294 293 293 292 292 292 292 292 292 291 291 291 291 291 290 289 289 288 288
298 298 298 297 297 297 297 297 296 296 296 296 296 295 295 295 294 294 294 294 294 294 294 294 293 292 292 292 292 292 291 291 291 291 291 290 290 289 289 288 288 287
298 297 297 297 296 297 297 297 297 296 296 296 295 295 294 294 294 294 294 294 294 294 293 293 292 292 292 291 291 291 291 291 290 290 290 290 289 289 288 287 287 287
297 297 297 296 296 296 296 296 296 296 296 295 295 294 294 294 294 294 294 294 294 293 292 292 292 292 291 291 291 291 290 290 290 290 289 289 288 288 287 287 287 287
297 297 296 296 296 296 296 296 296 295 295 295 294 294 294 294 294 294 294 293 293 292 292 291 291 291 291 291 290 290 290 290 289 289 289 288 288 288 287 287 287 286
297 297 297 296 296 296 296 296 296 295 295 295 294 294 294 294 294 294 293 293 292 292 291 291 291 291 291 290 290 290 289 289 289 289 288 288 288 287 287 287 287 286
297 297 296 296 296 296 296 296 295 295 295 294 294 294 293 293 293 293 293 292 292 291 291 291 290 290 290 290 289 289 289 289 289 289 288 288 288 287 287 287 287 286
296 296 296 296 296 296 296 295 295 295 294 294 293 293 293 293 293 293 292 291 291 291 290 290 290 290 290 289 289 289 289 289 289 288 288 288 288 288 287 287 287 286
296 296 296 296 296 296 296 295 295 295 294 294 293 293 293 293 293 292 292 291 290 290 290 289 289 289 289 289 289 289 289 289 288 288 288 288 288 288 287 287 287 286
296 296 296 296 296 296 295 295 295 294 294 293 293 293 293 293 292 291 291 290 290 290 289 289 289 289 289 289 289 289 289 289 288 288 288 288 288 288 287 287 287 286
296 296 295 295 295 295 295 294 294 294 293 293 292 292 292 292 292 291 290 290 289 289 289 289 289 289 289 289 289 289 289 289 289 288 288 288 288 287 287 287 287 286
295 295 295 295 295 294 294 293 293 293 292 292 291 291 291 291 291 290 290 289 289 289 288 288 289 289 289 289 289 289 289 289 289 288 288 288 288 287 287 287 287 286
295 294 294 294 294 293 293 292 292 292 291 291 291 291 291 290 290 289 289 289 288 288 288 288 289 289 289 289 289 289 289 289 289 288 288 288 287 287 287 287 287 286
294 294 294 294 293 293 292 292 291 291 291 290 290 290 290 289 289 289 289 288 288 288 288 288 288 289 289 289 289 289 288 288 288 288 288 288 287 287 287 287 287 286
294 293 293 293 293 292 292 291 291 290 290 290 290 289 289 289 289 289 288 288 288 288 288 288 288 288 289 289 289 288 288 288 288 288 288 288 287 287 287 287 286 286
294 293 293 293 292 292 291 291 290 290 290 290 289 289 289 288 288 288 288 288 288 288 288 288 288 288 288 288 288 288 288 288 288 288 288 287 287 287 287 287 286 286
293 293 293 292 292 291 291 290 290 290 290 290 289 288 288 288 288 288 288 288 288 288 288 288 288 288 288 288 288 288 287 287 287 287 287 287 287 287 286 286 286 286
293 293 293 292 292 291 291 290 290 290 290 289 288 288 288 288 288 288 288 287 288 288 288 288 288 288 287 287 287 287 287 287 287 287 287 287 287 286 286 286 286 285
293 293 293 292 291 291 290 290 291 290 289 289 288 288 288 288 287 287 287 287 287 287 287 287 287 287 287 287 287 287 286 286 287 287 287 287 287 286 286 286 286 285
294 293 293 292 291 291 291 291 291 290 289 288 288 288 287 287 287 287 287 287 287 287 287 287 287 287 287 286 286 286 286 286 287 287 287 287 287 286 286 286 286 285
294 293 293 292 291 291 291 291 291 290 289 288 288 288 287 287 287 287 287 287 287 287 287 287 287 287 287 286 286 286 286 287 287 287 287 287 287 286 286 286 285 285
294 293 292 292 291 291 292 292 291 290 289 289 288 288 287 287 287 287 287 286 286 286 286 286 286 286 286 286 286 286 286 287 287 287 287 287 286 286 286 286 285 285
294 293 293 292 292 292 292 291 291 290 290 289 288 288 287 287 287 287 287 286 286 286 286 286 286 286 286 286 287 287 287 287 287 287 287 287 286 286 286 286 285 285
294 293 293 293 293 292 292 291 291 290 290 289 288 288 287 287 287 287 287 287 287 287 287 287 287 287 287 287 287 287 287 287 287 287 287 287 286 286 286 286 285 285
Wind_Speed
24 22 20 19 18 16 15 15 14 13 12 12 10 9 9 8 7 6 5 4 4 3 4 4 5 5 6 6 7 8 8 9 10 11 12 13 15 17 18 19 19 19
25 23 21 20 19 18 16 15 14 13 12 12 10 9 9 8 8 7 6 4 3 2 2 3 4 4 5 6 6 7 8 9 10 10 11 13 15 17 18 19 19 18
26 24 22 20 19 18 18 16 15 14 13 12 11 10 10 9 8 8 7 4 2 1 1 2 3 4 4 5 6 7 8 8 9 10 12 13 15 17 18 18 18 17
26 24 22 20 19 18 18 17 16 15 14 12 12 11 11 10 9 8 7 5 3 2 2 3 3 4 5 6 6 7 7 8 10 11 13 14 16 17 17 17 16 16
26 24 22 21 20 19 18 17 16 15 15 14 13 12 12 11 10 8 6 5 4 4 4 5 6 6 7 7 7 7 8 9 10 11 13 14 15 16 16 16 16 16
26 25 23 22 21 19 18 17 16 16 15 14 14 13 12 11 10 8 7 6 6 6 6 7 7 7 7 7 7 8 8 9 10 11 12 14 14 15 15 16 16 16
27 26 25 23 22 21 19 18 17 17 15 15 14 14 13 12 10 9 8 8 8 8 9 9 8 8 8 8 8 8 8 9 10 11 12 13 14 15 15 16 17 17
28 27 26 25 24 23 21 20 19 18 17 16 15 14 13 12 11 10 10 10 10 10 10 9 9 8 8 8 8 8 8 9 10 11 13 13 14 15 16 17 17 18
29 28 28 26 25 24 22 21 20 19 18 17 16 16 14 13 12 12 12 12 12 12 11 11 10 9 8 8 8 9 9 9 10 12 13 14 15 15 16 17 18 18
31 30 29 28 26 25 23 23 21 20 19 19 18 17 16 15 14 14 14 14 13 13 12 12 11 9 9 9 9 9 10 10 11 12 13 15 15 16 17 17 18 18
33 32 31 29 27 26 25 24 22 21 21 21 20 19 17 16 15 15 15 15 14 14 13 12 11 10 10 9 10 10 11 11 12 13 14 15 16 16 17 18 19 19
35 34 32 30 28 27 26 25 24 23 23 22 21 20 18 17 17 16 16 16 15 15 14 13 12 11 11 10 11 11 12 12 13 14 15 16 16 16 17 18 19 20
36 35 33 31 29 28 27 26 25 25 25 24 22 21 19 19 18 18 17 17 16 16 15 14 14 13 12 12 12 13 13 14 14 16 16 16 16 16 17 18 19 20
37 36 34 32 30 29 28 27 27 27 26 24 23 22 21 20 19 18 18 18 17 17 16 16 15 15 14 14 14 14 15 16 16 17 18 17 17 17 17 18 20 20
38 36 34 33 32 31 30 29 29 28 27 25 24 23 22 21 20 20 19 19 19 18 17 17 17 17 16 15 15 16 17 17 18 19 20 19 17 17 17 18 20 21
38 37 35 34 33 32 31 31 30 29 28 27 26 24 24 23 22 22 21 20 20 19 19 19 19 18 18 17 17 18 19 19 20 21 21 20 18 17 18 18 20 21
39 38 36 35 34 33 33 32 31 30 29 28 27 26 26 25 24 23 22 22 21 21 21 21 20 20 19 19 20 20 21 21 22 23 22 21 19 18 18 19 20 21
40 38 36 35 35 34 34 33 32 31 30 30 29 28 27 26 25 25 24 23 23 23 23 23 22 21 21 21 22 22 23 24 24 24 24 22 20 19 20 20 21 21
39 38 37 36 36 35 34 33 32 32 32 31 30 29 28 27 27 26 26 26 26 25 25 24 23 23 23 23 24 24 25 26 27 26 25 23 21 20 21 21 21 22
39 38 37 37 36 35 34 34 33 33 33 32 31 30 29 29 28 28 28 28 28 27 26 26 25 24 25 25 26 26 27 28 29 29 27 24 22 22 22 22 22 23
39 38 38 37 36 36 35 35 34 34 34 33 31 31 30 30 29 29 29 29 29 29 28 28 27 26 27 28 28 28 28 29 31 31 29 26 24 24 24 23 23 23
39 39 39 38 37 37 36 35 35 36 35 32 31 31 31 31 31 31 30 30 30 31 31 30 29 28 29 30 30 29 29 31 32 32 30 27 26 26 26 25 25 25
39 39 39 38 38 37 36 36 36 36 34 32 32 32 33 33 32 31 31 31 31 32 32 32 31 30 31 31 31 31 31 32 33 32 31 29 27 27 27 27 27 26
35 37 38 37 37 37 36 36 36 35 33 32 32 33 32 32 32 31 31 31 32 32 32 32 32 32 32 32 32 31 32 33 33 32 31 30 29 29 29 29 28 27
31 33 35 35 35 35 35 35 34 33 32 31 31 32 32 31 31 31 31 31 32 32 32 32 32 32 32 33 32 32 33 33 33 32 32 31 30 30 30 30 30 29
26 29 30 31 31 31 32 32 32 31 31 30 30 31 31 31 31 31 32 32 32 32 32 32 32 32 32 32 32 32 32 33 33 33 32 31 31 31 32 32 32 31
Wind_Direction
184 184 183 180 179 181 178 173 169 164 160 155 153 150 146 146 142 135 131 119 104 76 52 33 19 11 2 360 358 356 354 350 349 349 349 348 346 347 347 344 342 338
185 185 185 185 183 180 177 173 169 165 162 159 158 158 156 155 152 146 145 137 119 83 44 17 1 354 348 346 342 337 337 337 338 339 339 341 342 343 343 340 337 333
187 188 188 189 187 183 177 172 170 168 169 167 165 166 165 163 161 157 158 157 146 111 359 336 329 327 322 316 315 317 321 326 331 335 338 341 342 342 341 338 335 331
188 190 190 190 188 185 181 176 174 174 175 175 173 174 174 172 169 169 172 178 189 230 270 284 288 287 288 291 297 306 316 326 333 337 339 341 341 341 339 337 334 331
191 192 191 189 189 187 184 181 180 180 180 182 181 180 181 180 180 184 189 200 218 241 254 259 264 270 278 286 294 306 318 328 334 337 339 339 339 339 338 336 334 332
193 193 192 191 191 189 187 184 185 187 186 187 189 188 188 189 193 198 207 220 231 240 245 250 258 268 278 287 297 309 318 326 332 335 338 338 337 337 336 335 335 334
196 195 194 194 193 192 191 190 191 192 192 194 196 196 197 199 205 212 221 230 235 239 243 250 259 269 278 289 299 308 315 324 330 334 337 338 337 336 336 336 336 335
199 198 198 198 196 194 194 195 197 197 198 201 202 204 206 209 216 224 230 234 236 241 246 251 259 267 276 286 295 303 313 321 328 333 335 336 335 335 335 335 335 335
202 203 202 201 199 199 199 200 202 202 205 207 209 211 213 217 225 231 234 238 240 243 248 251 257 263 271 281 290 299 309 318 323 329 332 332 333 332 333 334 334 334
205 206 206 204 203 204 204 205 206 207 210 212 214 217 220 224 230 234 237 241 243 246 249 251 254 260 268 277 286 295 304 311 318 323 326 327 328 329 331 333 333 334
208 209 209 208 208 208 208 209 211 212 214 216 218 221 225 230 234 237 240 242 244 247 250 251 253 259 266 274 282 290 299 306 311 316 318 320 323 325 329 331 331 331
211 212 212 212 212 212 212 214 215 217 219 221 222 225 229 233 236 239 241 242 244 247 250 251 254 259 264 271 279 287 294 300 304 308 310 312 316 321 324 326 327 327
215 215 215 215 216 216 216 218 219 221 223 225 226 228 232 236 238 240 241 241 244 247 249 251 254 257 263 269 277 285 291 296 300 302 303 305 310 315 319 322 324 324
218 218 218 218 219 219 220 221 222 224 226 227 229 232 235 238 240 241 241 241 244 245 247 250 253 257 263 268 275 284 288 293 297 297 296 299 304 309 314 318 320 321
220 220 220 220 221 221 222 223 225 227 228 229 231 234 236 238 238 239 240 241 244 245 246 249 253 258 262 268 275 282 286 290 294 293 293 295 299 305 310 314 317 317
221 221 222 222 222 224 225 226 227 229 230 231 233 235 236 236 236 237 239 242 243 244 247 251 254 258 262 268 275 280 284 288 291 291 292 293 295 300 306 310 314 315
222 223 223 224 225 226 227 228 229 231 233 234 234 235 235 235 236 238 240 241 243 245 248 251 254 258 263 269 274 278 283 286 289 291 291 291 293 298 303 307 310 312
224 224 225 226 227 228 229 230 231 233 235 236 236 236 235 235 237 239 240 241 242 245 248 250 254 258 264 269 274 278 282 285 288 289 289 289 290 295 300 304 307 309
226 227 228 229 230 231 231 232 234 236 238 238 238 237 237 238 240 241 241 241 243 245 248 251 254 260 265 270 273 277 281 284 287 287 287 287 288 292 297 300 303 306
229 230 231 232 233 233 234 235 237 239 240 240 239 238 238 240 241 242 242 242 244 247 249 252 255 260 266 270 274 277 280 283 286 286 286 286 287 290 294 297 301 304
233 233 234 234 234 235 236 238 240 242 241 240 240 240 242 244 244 245 244 245 247 249 251 253 256 261 266 270 273 276 278 281 284 285 285 286 287 288 291 295 298 301
238 237 236 236 235 236 238 240 243 244 243 242 242 242 244 245 245 245 246 248 250 251 253 255 258 262 266 271 273 275 277 280 282 283 284 285 285 287 289 293 296 299
241 240 239 237 237 238 241 244 246 247 246 245 244 244 244 245 246 247 248 250 251 253 256 258 260 263 266 270 272 274 276 278 280 282 282 283 284 285 288 291 294 298
244 243 242 240 240 242 245 248 249 250 250 248 247 246 247 248 249 251 252 253 254 256 259 260 262 264 266 268 271 273 275 277 279 280 280 281 282 284 286 289 292 295
246 246 245 245 245 247 249 252 253 254 253 251 249 249 249 250 251 252 254 255 256 258 260 261 261 263 265 268 270 272 274 276 277 278 279 281 282 283 285 288 290 293
246 247 248 248 249 251 252 255 256 255 254 252 250 250 250 250 251 253 255 256 257 258 259 259 261 263 265 267 270 271 273 275 276 278 279 280 281 281 283 286 288 292